Kailua Kona, HI

11:42 AM HST on February 25, 2017 (GMT -1000)
Kona International At Keahole

Weather History for PHKO - August, 2014

Change the Weather History Date:

Monday, August 18, 2014

  Actual Average Record
Temperature  
Mean Temperature 82 °F -  
Max Temperature 87 °F 84 °F 92 °F (1982)
Min Temperature 75 °F 73 °F 71 °F (1983)
Cooling Degree Days 17    
Growing Degree Days 32 (Base 50)    
Moisture  
Dew Point 70 °F    
Average Humidity 70    
Maximum Humidity 82    
Minimum Humidity 59    
Precipitation  
Precipitation 0.15 in - - ()
Sea Level Pressure  
Sea Level Pressure 29.95 in    
Wind  
Wind Speed 6 mph (South)    
Max Wind Speed 15 mph    
Max Gust Speed 20 mph    
Visibility 10 miles    
Events Rain    
Averages and records for this station are not official NWS values.
T = Trace of Precipitation, MM = Missing Value Source: NWS Daily Summary

Daily Weather History Graph

Daily Weather History Graph

Search for Another Location

Airport or City:

Trip Planner

Search our weather history database for the weather conditions in past years. The results will help you decide how hot, cold, wet, or windy it might be!

Date:

Astronomy

Aug. 18, 2014 Rise Set
Actual Time 6:05 AM HST 6:50 PM HST
Civil Twilight 5:42 AM HST 7:12 PM HST
Nautical Twilight 5:15 AM HST 7:39 PM HST
Astronomical Twilight 4:48 AM HST 8:06 PM HST
Moon 12:31 AM HST (8/18) 1:51 PM HST (8/18)
Length of Visible Light 13h 30m
Length of Day
12h 44m
Last Quarter, 36% of the Moon is Illuminated
Aug 18
Last Quarter
Aug 25
New
Sep 2
First Quarter
Sep 8
Full
Sep 15
Last Quarter

Hourly Weather History & Observations

Time (HST) Temp. Heat Index Dew Point Humidity Pressure Visibility Wind Dir Wind Speed Gust Speed Precip Events Conditions
12:00 AM 80.6 °F 82.7 °F 66.2 °F 61% 29.98 in 10.0 mi ENE 4.6 mph - N/A   Overcast
12:14 AM 80.6 °F 82.7 °F 66.2 °F 61% 29.97 in 10.0 mi SSE 3.5 mph - N/A   Overcast
12:53 AM 80.1 °F 83.6 °F 71.1 °F 74% 29.96 in 10.0 mi South 6.9 mph - N/A   Scattered Clouds
1:53 AM 78.1 °F - 69.1 °F 74% 29.94 in 10.0 mi East 5.8 mph - N/A   Clear
2:53 AM 78.1 °F - 68.0 °F 71% 29.93 in 10.0 mi East 4.6 mph - N/A   Partly Cloudy
3:53 AM 78.1 °F - 68.0 °F 71% 29.92 in 10.0 mi ESE 6.9 mph - N/A   Scattered Clouds
4:26 AM 77.0 °F - 69.8 °F 78% 29.92 in 10.0 mi ESE 3.5 mph - 0.00 in   Mostly Cloudy
4:34 AM 77.0 °F - 69.8 °F 78% 29.92 in 10.0 mi NE 4.6 mph - 0.00 in   Mostly Cloudy
4:53 AM 77.0 °F - 68.0 °F 74% 29.92 in 10.0 mi ESE 4.6 mph - 0.00 in   Scattered Clouds
5:13 AM 77.0 °F - 66.2 °F 69% 29.93 in 10.0 mi NNE 6.9 mph - N/A   Mostly Cloudy
5:29 AM 77.0 °F - 66.2 °F 69% 29.93 in 10.0 mi Calm Calm - N/A   Mostly Cloudy
5:53 AM 77.0 °F - 68.0 °F 74% 29.94 in 10.0 mi East 3.5 mph - N/A   Mostly Cloudy
6:10 AM 77.0 °F - 69.8 °F 78% 29.94 in 10.0 mi ESE 6.9 mph - 0.00 in Rain Light Rain
6:22 AM 77.0 °F - 69.8 °F 78% 29.94 in 10.0 mi ESE 6.9 mph - 0.00 in Rain Light Rain
6:53 AM 78.1 °F - 71.1 °F 79% 29.96 in 10.0 mi ESE 5.8 mph - 0.01 in Rain Light Rain
7:53 AM 80.1 °F 83.6 °F 71.1 °F 74% 29.97 in 10.0 mi ESE 8.1 mph - 0.00 in   Mostly Cloudy
8:47 AM 80.6 °F 82.7 °F 66.2 °F 61% 29.86 in 10.0 mi WNW 11.5 mph - N/A   Clear
8:53 AM 82.0 °F 85.9 °F 70.0 °F 67% 29.98 in 10.0 mi South 5.8 mph - N/A   Mostly Cloudy
9:53 AM 84.0 °F 89.0 °F 71.1 °F 65% 29.98 in 10.0 mi SSW 10.4 mph - N/A   Mostly Cloudy
10:53 AM 82.9 °F 87.5 °F 71.1 °F 67% 29.97 in 10.0 mi WSW 9.2 mph - N/A   Scattered Clouds
11:53 AM 86.0 °F 90.7 °F 70.0 °F 59% 29.96 in 10.0 mi SW 11.5 mph - N/A   Partly Cloudy
12:53 PM 87.1 °F 92.8 °F 71.1 °F 59% 29.94 in 10.0 mi SW 12.7 mph - N/A   Clear
1:53 PM 86.0 °F 91.5 °F 71.1 °F 61% 29.93 in 10.0 mi SW 12.7 mph - N/A   Scattered Clouds
2:53 PM 87.1 °F 93.6 °F 72.0 °F 61% 29.92 in 10.0 mi SSW 15.0 mph - N/A   Partly Cloudy
3:53 PM 86.0 °F 91.5 °F 71.1 °F 61% 29.91 in 10.0 mi SSW 13.8 mph - N/A   Scattered Clouds
4:53 PM 84.9 °F 89.4 °F 70.0 °F 61% 29.91 in 10.0 mi SSW 12.7 mph - N/A   Clear
5:53 PM 82.0 °F 86.7 °F 72.0 °F 71% 29.92 in 10.0 mi SW 10.4 mph - N/A   Overcast
6:53 PM 82.0 °F 86.7 °F 72.0 °F 71% 29.94 in 10.0 mi SW 10.4 mph - N/A   Overcast
7:53 PM 81.0 °F 85.2 °F 72.0 °F 74% 29.96 in 10.0 mi WSW 9.2 mph - N/A   Overcast
8:42 PM 78.8 °F - 71.6 °F 78% 29.97 in 2.5 mi Variable 3.5 mph 19.6 mph 0.12 in Rain Heavy Rain
8:47 PM 78.8 °F - 71.6 °F 78% 29.97 in 3.0 mi WNW 6.9 mph - 0.13 in Rain Rain
8:53 PM 80.1 °F 83.2 °F 70.0 °F 71% 29.98 in 7.0 mi West 10.4 mph - 0.14 in Rain Light Rain
9:53 PM 79.0 °F - 69.1 °F 72% 29.99 in 10.0 mi Calm Calm - 0.00 in   Overcast
10:53 PM 79.0 °F - 68.0 °F 69% 29.99 in 10.0 mi Calm Calm - N/A   Scattered Clouds
11:53 PM 75.9 °F - 70.0 °F 82% 29.98 in 10.0 mi SSW 8.1 mph - N/A   Overcast